Location: Góry Miechowskie
(50.3599°N, 20.1803°E)
Time: 22:12:53
(UTC+00:00)

Tiros 1 despin weight - Pass Details

Date: 16 September 2024
Orbit: 572 x 614 km, 48.2° (Epoch: 12 October)

Event Time Altitude Azimuth Distance (km) Brightness Sun altitude
Rises 03:59:25 0° 262° (W) 2,879 - -3.6°
Exits shadow 04:00:28 - 261° (W) 2,470 ? -3.4°
Reaches altitude 10° 04:01:44 10° 259° (W) 1,977 ? -3.2°
Maximum altitude 04:06:15 68° 177° (S) 668 ? -2.5°
Drops below altitude 10° 04:10:47 10° 96° (E) 1,979 ? -1.8°
Sets 04:13:05 0° 93° (E) 2,881 ? -1.4°
